Location: ????
(55.5675°N, 37.6272°E)
Time: 10:03:17
(UTC+00:00)

NOSS 0 Rocket - Pass Details

Date: 14 April 2026
Orbit: 935 x 953 km, 70.0° (Epoch: 19 May)

Event Time Altitude Azimuth Distance (km) Brightness Sun altitude
Rises 18:35:31 0° 209° (SSW) 3,618 6.8 -15.4°
Reaches altitude 10° 18:38:03 10° 208° (SSW) 2,676 6.1 -15.7°
Maximum altitude 18:44:16 80° 123° (ESE) 973 3.9 -16.3°
Drops below altitude 10° 18:50:31 10° 38° (NE) 2,685 6.4 -16.9°
Sets 18:53:03 0° 37° (NE) 3,632 7.2 -17.1°
